|
ตารางข้อมูล |
ค้นข้อมูล1 |
ค้นข้อมูล2 |
ค่าสูงสุด-ต่ำสุด |
Select Sensor -->| 20402 | 4529A | 4529C | 4529D | 89M1A | 89M1B | หน้าจอย่อ | 4529 |
ข้อมูลรวม (ยังไม่ได้เลือก Sensor)
| ID | Date Time | Room | Temp | Humidity | RSSI | Time |
|---|
| 1155344 | 2026-09-05 16:51:57 | 4529A | 29.8 °C | 59.6 % | | 16:51 |
| 1155343 | 2026-09-05 16:51:41 | 4529C | 32.3 °C | 58.4 % | | 16:51 |
| 1155342 | 2026-09-05 16:48:08 | 4529D | 30.5 °C | 69.6 % | | 16:48 |
| 1155341 | 2026-09-05 16:45:27 | 89M1A | 34.1 °C | 60.6 % | | 16:45 |
| 1155340 | 2026-09-05 16:44:15 | 89M1B | 34.1 °C | 62.9 % | | 16:44 |
| 1155339 | 2026-09-05 16:44:00 | 20402 | 30.2 °C | 45.6 % | | 16:44 |
| 1155338 | 2026-09-05 16:41:45 | 4529A | 29.7 °C | 63.4 % | | 16:41 |
| 1155337 | 2026-09-05 16:41:39 | 4529C | 32.3 °C | 58.3 % | | 16:41 |
| 1155336 | 2026-09-05 16:38:34 | 4529D | 31.0 °C | 70.1 % | | 16:38 |
| 1155335 | 2026-09-05 16:35:49 | 89M1A | 33.9 °C | 59.7 % | | 16:35 |
| 1155334 | 2026-09-05 16:34:37 | 89M1B | 34.1 °C | 62.7 % | | 16:34 |
| 1155333 | 2026-09-05 16:33:48 | 20402 | 30.1 °C | 44.9 % | | 16:33 |
| 1155332 | 2026-09-05 16:31:36 | 4529C | 32.3 °C | 58.1 % | | 16:31 |
| 1155331 | 2026-09-05 16:31:33 | 4529A | 29.8 °C | 65.1 % | | 16:31 |
| 1155330 | 2026-09-05 16:28:59 | 4529D | 31.0 °C | 70.1 % | | 16:28 |
| 1155329 | 2026-09-05 16:26:11 | 89M1A | 33.9 °C | 59.1 % | | 16:26 |
| 1155328 | 2026-09-05 16:25:00 | 89M1B | 34.0 °C | 63.2 % | | 16:25 |
| 1155327 | 2026-09-05 16:23:38 | 20402 | 30.1 °C | 44.6 % | | 16:23 |
| 1155326 | 2026-09-05 16:21:34 | 4529C | 32.2 °C | 57.4 % | | 16:21 |
| 1155325 | 2026-09-05 16:21:21 | 4529A | 29.7 °C | 64.9 % | | 16:21 |
| 1155324 | 2026-09-05 16:19:24 | 4529D | 30.9 °C | 70.1 % | | 16:19 |
| 1155323 | 2026-09-05 16:16:34 | 89M1A | 34.6 °C | 57.8 % | | 16:16 |
| 1155322 | 2026-09-05 16:15:17 | 89M1B | 34.1 °C | 62.7 % | | 16:15 |
| 1155321 | 2026-09-05 16:13:28 | 20402 | 30.1 °C | 44.4 % | | 16:13 |
| 1155320 | 2026-09-05 16:11:31 | 4529C | 32.2 °C | 57.5 % | | 16:11 |
| 1155319 | 2026-09-05 16:11:09 | 4529A | 29.8 °C | 60.5 % | | 16:11 |
| 1155318 | 2026-09-05 16:09:50 | 4529D | 30.9 °C | 70.0 % | | 16:09 |
| 1155317 | 2026-09-05 16:06:57 | 89M1A | 34.7 °C | 58.4 % | | 16:06 |
| 1155316 | 2026-09-05 16:05:39 | 89M1B | 34.2 °C | 62.8 % | | 16:05 |
| 1155315 | 2026-09-05 16:03:18 | 20402 | 30.0 °C | 44.1 % | | 16:03 |
| 1155314 | 2026-09-05 16:01:29 | 4529C | 32.1 °C | 57.5 % | | 16:01 |
| 1155313 | 2026-09-05 16:00:58 | 4529A | 29.6 °C | 63.6 % | | 16:00 |
| 1155312 | 2026-09-05 16:00:15 | 4529D | 30.3 °C | 73.6 % | | 16:00 |
| 1155311 | 2026-09-05 15:57:19 | 89M1A | 34.6 °C | 59.4 % | | 15:57 |
| 1155310 | 2026-09-05 15:56:01 | 89M1B | 34.1 °C | 62.9 % | | 15:56 |
| 1155309 | 2026-09-05 15:53:08 | 20402 | 30.0 °C | 44.1 % | | 15:53 |
| 1155308 | 2026-09-05 15:51:27 | 4529C | 32.1 °C | 57.4 % | | 15:51 |
| 1155307 | 2026-09-05 15:50:46 | 4529A | 29.9 °C | 64.6 % | | 15:50 |
| 1155306 | 2026-09-05 15:50:39 | 4529D | 30.8 °C | 71.7 % | | 15:50 |
| 1155305 | 2026-09-05 15:47:42 | 89M1A | 33.6 °C | 61.1 % | | 15:47 |
| 1155304 | 2026-09-05 15:46:22 | 89M1B | 34.1 °C | 63.5 % | | 15:46 |
| 1155303 | 2026-09-05 15:42:56 | 20402 | 30.0 °C | 43.9 % | | 15:42 |
| 1155302 | 2026-09-05 15:41:24 | 4529C | 32.1 °C | 57.4 % | | 15:41 |
| 1155301 | 2026-09-05 15:41:03 | 4529D | 30.7 °C | 68.9 % | | 15:41 |
| 1155300 | 2026-09-05 15:40:34 | 4529A | 30.0 °C | 64.9 % | | 15:40 |
| 1155299 | 2026-09-05 15:38:00 | 89M1A | 33.9 °C | 60.9 % | | 15:38 |
| 1155298 | 2026-09-05 15:36:43 | 89M1B | 34.1 °C | 63.9 % | | 15:36 |
| 1155297 | 2026-09-05 15:32:44 | 20402 | 29.8 °C | 43.3 % | | 15:32 |
| 1155296 | 2026-09-05 15:31:28 | 4529D | 30.7 °C | 81.9 % | | 15:31 |
| 1155295 | 2026-09-05 15:31:22 | 4529C | 32.0 °C | 57.3 % | | 15:31 |
| 1155294 | 2026-09-05 15:30:24 | 4529A | 29.6 °C | 60.9 % | | 15:30 |
| 1155293 | 2026-09-05 15:28:23 | 89M1A | 33.9 °C | 62.0 % | | 15:28 |
| 1155292 | 2026-09-05 15:27:04 | 89M1B | 34.1 °C | 64.4 % | | 15:27 |
| 1155291 | 2026-09-05 15:22:34 | 20402 | 29.9 °C | 43.3 % | | 15:22 |
| 1155290 | 2026-09-05 15:21:55 | 4529D | 30.7 °C | 70.1 % | | 15:21 |
| 1155289 | 2026-09-05 15:21:19 | 4529C | 31.9 °C | 57.1 % | | 15:21 |
| 1155288 | 2026-09-05 15:20:14 | 4529A | 29.8 °C | 64.1 % | | 15:20 |
| 1155287 | 2026-09-05 15:18:44 | 89M1A | 33.7 °C | 62.9 % | | 15:18 |
| 1155286 | 2026-09-05 15:17:25 | 89M1B | 34.1 °C | 64.3 % | | 15:17 |
| 1155285 | 2026-09-05 15:12:23 | 4529D | 30.7 °C | 71.2 % | | 15:12 |
| 1155284 | 2026-09-05 15:12:21 | 20402 | 29.7 °C | 42.3 % | | 15:12 |
| 1155283 | 2026-09-05 15:11:17 | 4529C | 31.9 °C | 56.7 % | | 15:11 |
| 1155282 | 2026-09-05 15:10:04 | 4529A | 28.8 °C | 60.1 % | | 15:10 |
| 1155281 | 2026-09-05 15:09:09 | 89M1A | 34.5 °C | 63.7 % | | 15:09 |
| 1155280 | 2026-09-05 15:07:47 | 89M1B | 34.2 °C | 64.3 % | | 15:07 |
| 1155279 | 2026-09-05 15:02:51 | 4529D | 30.6 °C | 70.6 % | | 15:02 |
| 1155278 | 2026-09-05 15:02:11 | 20402 | 29.7 °C | 42.4 % | | 15:02 |
| 1155277 | 2026-09-05 15:01:15 | 4529C | 31.9 °C | 56.6 % | | 15:01 |
| 1155276 | 2026-09-05 14:59:53 | 4529A | 28.9 °C | 60.7 % | | 14:59 |
| 1155275 | 2026-09-05 14:59:31 | 89M1A | 34.7 °C | 63.2 % | | 14:59 |
| 1155274 | 2026-09-05 14:58:09 | 89M1B | 34.4 °C | 64.1 % | | 14:58 |
| 1155273 | 2026-09-05 14:53:17 | 4529D | 30.6 °C | 77.5 % | | 14:53 |
| 1155272 | 2026-09-05 14:51:59 | 20402 | 29.6 °C | 42.0 % | | 14:51 |
| 1155271 | 2026-09-05 14:51:12 | 4529C | 31.9 °C | 56.7 % | | 14:51 |
| 1155270 | 2026-09-05 14:49:54 | 89M1A | 34.5 °C | 62.8 % | | 14:49 |
| 1155269 | 2026-09-05 14:49:41 | 4529A | 28.7 °C | 60.1 % | | 14:49 |
| 1155268 | 2026-09-05 14:48:30 | 89M1B | 34.0 °C | 64.0 % | | 14:48 |
| 1155267 | 2026-09-05 14:43:43 | 4529D | 30.6 °C | 70.6 % | | 14:43 |
| 1155266 | 2026-09-05 14:41:47 | 20402 | 29.5 °C | 41.5 % | | 14:41 |
| 1155265 | 2026-09-05 14:41:10 | 4529C | 31.8 °C | 56.5 % | | 14:41 |
| 1155264 | 2026-09-05 14:40:16 | 89M1A | 34.2 °C | 63.0 % | | 14:40 |
| 1155263 | 2026-09-05 14:39:30 | 4529A | 28.4 °C | 58.9 % | | 14:39 |
| 1155262 | 2026-09-05 14:38:51 | 89M1B | 34.0 °C | 64.1 % | | 14:38 |
| 1155261 | 2026-09-05 14:34:11 | 4529D | 30.6 °C | 70.6 % | | 14:34 |
| 1155260 | 2026-09-05 14:31:34 | 20402 | 29.1 °C | 40.7 % | | 14:31 |
| 1155259 | 2026-09-05 14:31:07 | 4529C | 31.8 °C | 56.5 % | | 14:31 |
| 1155258 | 2026-09-05 14:30:39 | 89M1A | 34.0 °C | 63.0 % | | 14:30 |
| 1155257 | 2026-09-05 14:29:18 | 4529A | 28.5 °C | 59.1 % | | 14:29 |
| 1155256 | 2026-09-05 14:29:12 | 89M1B | 34.0 °C | 63.2 % | | 14:29 |
| 1155255 | 2026-09-05 14:24:38 | 4529D | 30.5 °C | 69.9 % | | 14:24 |
| 1155254 | 2026-09-05 14:21:24 | 20402 | 28.5 °C | 41.0 % | | 14:21 |
| 1155253 | 2026-09-05 14:21:05 | 4529C | 31.8 °C | 56.5 % | | 14:21 |
| 1155252 | 2026-09-05 14:21:01 | 89M1A | 33.3 °C | 64.9 % | | 14:21 |
| 1155251 | 2026-09-05 14:19:34 | 89M1B | 34.1 °C | 63.8 % | | 14:19 |
| 1155250 | 2026-09-05 14:19:04 | 4529A | 28.7 °C | 56.8 % | | 14:19 |
| 1155249 | 2026-09-05 14:15:05 | 4529D | 30.5 °C | 70.0 % | | 14:15 |
| 1155248 | 2026-09-05 14:11:25 | 89M1A | 34.1 °C | 64.2 % | | 14:11 |
| 1155247 | 2026-09-05 14:11:15 | 20402 | 27.3 °C | 42.5 % | | 14:11 |
| 1155246 | 2026-09-05 14:11:02 | 4529C | 31.7 °C | 56.5 % | | 14:11 |
| 1155245 | 2026-09-05 14:09:55 | 89M1B | 34.4 °C | 63.6 % | | 14:09 |
| 1155244 | 2026-09-05 14:08:52 | 4529A | 28.9 °C | 57.8 % | | 14:08 |
| 1155243 | 2026-09-05 14:05:32 | 4529D | 30.4 °C | 69.8 % | | 14:05 |
| 1155242 | 2026-09-05 14:01:48 | 89M1A | 34.1 °C | 63.7 % | | 14:01 |
| 1155241 | 2026-09-05 14:01:05 | 20402 | 27.3 °C | 42.5 % | | 14:01 |
| 1155240 | 2026-09-05 14:01:00 | 4529C | 31.7 °C | 56.3 % | | 14:01 |
| 1155239 | 2026-09-05 14:00:17 | 89M1B | 34.1 °C | 63.6 % | | 14:00 |
| 1155238 | 2026-09-05 13:58:40 | 4529A | 29.0 °C | 60.8 % | | 13:58 |
| 1155237 | 2026-09-05 13:55:59 | 4529D | 30.5 °C | 70.1 % | | 13:55 |
| 1155236 | 2026-09-05 13:52:11 | 89M1A | 34.3 °C | 62.3 % | | 13:52 |
| 1155235 | 2026-09-05 13:50:58 | 4529C | 31.7 °C | 56.3 % | | 13:50 |
| 1155234 | 2026-09-05 13:50:53 | 20402 | 27.9 °C | 44.7 % | | 13:50 |
| 1155233 | 2026-09-05 13:50:38 | 89M1B | 34.1 °C | 63.2 % | | 13:50 |
| 1155232 | 2026-09-05 13:48:30 | 4529A | 28.9 °C | 61.5 % | | 13:48 |
| 1155231 | 2026-09-05 13:46:26 | 4529D | 30.4 °C | 70.1 % | | 13:46 |
| 1155230 | 2026-09-05 13:42:33 | 89M1A | 34.6 °C | 60.1 % | | 13:42 |
| 1155229 | 2026-09-05 13:41:00 | 89M1B | 34.0 °C | 63.2 % | | 13:41 |
| 1155228 | 2026-09-05 13:40:55 | 4529C | 31.6 °C | 56.2 % | | 13:40 |
| 1155227 | 2026-09-05 13:40:43 | 20402 | 28.3 °C | 46.5 % | | 13:40 |
| 1155226 | 2026-09-05 13:38:19 | 4529A | 28.9 °C | 61.6 % | | 13:38 |
| 1155225 | 2026-09-05 13:36:54 | 4529D | 30.4 °C | 70.1 % | | 13:36 |
| 1155224 | 2026-09-05 13:32:56 | 89M1A | 35.0 °C | 60.3 % | | 13:32 |
| 1155223 | 2026-09-05 13:31:21 | 89M1B | 34.1 °C | 63.4 % | | 13:31 |
| 1155222 | 2026-09-05 13:30:53 | 4529C | 31.6 °C | 55.9 % | | 13:30 |
| 1155221 | 2026-09-05 13:30:33 | 20402 | 29.3 °C | 49.3 % | | 13:30 |
| 1155220 | 2026-09-05 13:28:07 | 4529A | 28.6 °C | 60.8 % | | 13:28 |
| 1155219 | 2026-09-05 13:27:21 | 4529D | 30.3 °C | 70.0 % | | 13:27 |
| 1155218 | 2026-09-05 13:23:17 | 89M1A | 34.5 °C | 59.7 % | | 13:23 |
| 1155217 | 2026-09-05 13:21:42 | 89M1B | 34.0 °C | 63.8 % | | 13:21 |
| 1155216 | 2026-09-05 13:20:50 | 4529C | 31.6 °C | 55.9 % | | 13:20 |
| 1155215 | 2026-09-05 13:20:23 | 20402 | 30.2 °C | 48.7 % | | 13:20 |
| 1155214 | 2026-09-05 13:17:55 | 4529A | 28.6 °C | 60.3 % | | 13:17 |
| 1155213 | 2026-09-05 13:17:49 | 4529D | 30.4 °C | 70.3 % | | 13:17 |
| 1155212 | 2026-09-05 13:13:39 | 89M1A | 34.8 °C | 59.2 % | | 13:13 |
| 1155211 | 2026-09-05 13:12:03 | 89M1B | 33.9 °C | 63.8 % | | 13:12 |
| 1155210 | 2026-09-05 13:10:48 | 4529C | 31.5 °C | 55.8 % | | 13:10 |
| 1155209 | 2026-09-05 13:10:13 | 20402 | 30.2 °C | 48.8 % | | 13:10 |
| 1155208 | 2026-09-05 13:08:16 | 4529D | 30.3 °C | 70.0 % | | 13:08 |
| 1155207 | 2026-09-05 13:07:43 | 4529A | 28.6 °C | 58.3 % | | 13:07 |
| 1155206 | 2026-09-05 13:04:01 | 89M1A | 34.6 °C | 59.5 % | | 13:04 |
| 1155205 | 2026-09-05 13:02:25 | 89M1B | 33.9 °C | 63.9 % | | 13:02 |
| 1155204 | 2026-09-05 13:00:46 | 4529C | 31.4 °C | 56.0 % | | 13:00 |
| 1155203 | 2026-09-05 13:00:01 | 20402 | 30.1 °C | 48.6 % | | 13:00 |
| 1155202 | 2026-09-05 12:58:43 | 4529D | 30.3 °C | 70.0 % | | 12:58 |
| 1155201 | 2026-09-05 12:57:32 | 4529A | 28.6 °C | 58.9 % | | 12:57 |
Data every 20 minute.